Tracking 29892 objects as of 21-Nov-2024
HD Live streaming from Space Station
objects crossing your sky now

CZ-6A DEB

Track CZ-6A DEB now!
10-day predictions


NORAD ID: 54550
Int'l Code: 2022-151LA
Perigee: 733.3 km
Apogee: 829.6 km
Inclination: 98.7 °
Period: 100.3 minutes
Semi major axis: 7152 km
RCS: Unknown
Launch date: November 11, 2022
Source: People's Republic of China (PRC)
Launch site: Taiyaun Space Center, China (TSC)

Note: This is SATELLITE DEBRIS
Your satellite tracking list
Your tracking list is empty




NASA's NSSDC Master Catalog

Two Line Element Set (TLE):
1 54550U 22151LA  24325.49422971  .00002415  00000-0  83818-3 0  9997
2 54550  98.7207 347.2946 0067292 209.5241 150.2137 14.35220854105669
Source of the keplerian elements: AFSPC